TimeEDT,TemperatureF,Dew PointF,Humidity,Sea Level PressureIn,VisibilityMPH,Wind Direction,Wind SpeedMPH,Gust SpeedMPH,PrecipitationIn,Events,Conditions,WindDirDegrees,DateUTC
12:13 AM,46.4,41.0,81,30.16,10.0,NNW,8.1,-,N/A,,Overcast,340,2013-05-24 04:13:00
12:33 AM,46.4,41.0,81,30.17,10.0,NNW,12.7,16.1,N/A,,Overcast,330,2013-05-24 04:33:00
12:53 AM,46.4,41.0,81,30.17,10.0,NNW,13.8,19.6,N/A,,Overcast,340,2013-05-24 04:53:00
1:11 AM,44.6,41.0,87,30.18,10.0,NNW,10.4,-,N/A,,Overcast,330,2013-05-24 05:11:00
1:31 AM,44.6,41.0,87,30.18,10.0,NNW,9.2,-,N/A,,Overcast,340,2013-05-24 05:31:00
1:51 AM,44.6,41.0,87,30.19,10.0,NNW,13.8,-,N/A,,Overcast,330,2013-05-24 05:51:00
2:11 AM,44.6,41.0,87,30.19,10.0,NNW,11.5,-,N/A,,Overcast,330,2013-05-24 06:11:00
2:33 AM,44.6,41.0,87,30.20,10.0,NNE,11.5,-,N/A,,Overcast,20,2013-05-24 06:33:00
2:53 AM,44.6,37.4,76,30.21,10.0,NNE,11.5,17.3,N/A,,Overcast,30,2013-05-24 06:53:00
3:13 AM,42.8,37.4,81,30.21,10.0,NNE,12.7,18.4,N/A,,Overcast,30,2013-05-24 07:13:00
3:33 AM,42.8,37.4,81,30.22,10.0,NNE,13.8,18.4,N/A,,Overcast,20,2013-05-24 07:33:00
3:53 AM,42.8,35.6,76,30.23,10.0,North,10.4,18.4,N/A,,Mostly Cloudy,10,2013-05-24 07:53:00
4:13 AM,41.0,33.8,76,30.24,10.0,North,13.8,-,N/A,,Scattered Clouds,360,2013-05-24 08:13:00
4:33 AM,41.0,33.8,76,30.24,10.0,North,13.8,-,N/A,,Clear,360,2013-05-24 08:33:00
4:54 AM,41.0,33.8,76,30.25,10.0,North,11.5,-,N/A,,Clear,360,2013-05-24 08:54:00
5:14 AM,39.2,33.8,81,30.25,10.0,North,13.8,17.3,N/A,,Clear,360,2013-05-24 09:14:00
5:34 AM,39.2,33.8,81,30.26,10.0,North,9.2,-,N/A,,Clear,360,2013-05-24 09:34:00
5:54 AM,39.2,33.8,81,30.26,10.0,North,8.1,-,N/A,,Clear,10,2013-05-24 09:54:00
6:14 AM,39.2,33.8,81,30.27,10.0,North,8.1,-,N/A,,Scattered Clouds,10,2013-05-24 10:14:00
6:34 AM,39.2,33.8,81,30.28,10.0,NNW,6.9,-,N/A,,Mostly Cloudy,340,2013-05-24 10:34:00
6:54 AM,37.4,33.8,87,30.28,10.0,NNW,9.2,-,N/A,,Scattered Clouds,330,2013-05-24 10:54:00
7:15 AM,39.2,35.6,87,30.29,10.0,NNW,8.1,-,N/A,,Scattered Clouds,330,2013-05-24 11:15:00
7:35 AM,41.0,35.6,81,30.29,10.0,NNW,5.8,-,N/A,,Clear,340,2013-05-24 11:35:00
7:55 AM,42.8,33.8,70,30.30,10.0,North,8.1,-,N/A,,Scattered Clouds,360,2013-05-24 11:55:00
8:15 AM,41.0,33.8,76,30.31,10.0,North,8.1,17.3,N/A,,Mostly Cloudy,10,2013-05-24 12:15:00
8:35 AM,41.0,35.6,81,30.32,10.0,North,6.9,-,N/A,,Overcast,350,2013-05-24 12:35:00
8:55 AM,42.8,35.6,76,30.33,10.0,North,10.4,-,N/A,,Overcast,10,2013-05-24 12:55:00
9:10 AM,42.8,33.8,70,30.33,10.0,North,11.5,-,N/A,,Overcast,360,2013-05-24 13:10:00
9:30 AM,42.8,33.8,70,30.34,10.0,North,11.5,-,N/A,,Overcast,10,2013-05-24 13:30:00
9:51 AM,42.8,35.6,76,30.34,10.0,NNW,11.5,17.3,N/A,,Overcast,340,2013-05-24 13:51:00
10:11 AM,42.8,33.8,70,30.35,10.0,North,6.9,-,N/A,,Overcast,360,2013-05-24 14:11:00
10:31 AM,42.8,33.8,70,30.36,10.0,North,12.7,-,N/A,,Overcast,10,2013-05-24 14:31:00
10:51 AM,42.8,33.8,70,30.36,10.0,North,10.4,17.3,N/A,,Overcast,10,2013-05-24 14:51:00
11:11 AM,42.8,33.8,70,30.36,10.0,North,6.9,-,N/A,,Overcast,360,2013-05-24 15:11:00
11:31 AM,44.6,33.8,66,30.37,10.0,North,8.1,-,N/A,,Overcast,350,2013-05-24 15:31:00
11:51 AM,44.6,33.8,66,30.37,10.0,North,6.9,-,N/A,,Overcast,350,2013-05-24 15:51:00
12:11 PM,44.6,35.6,71,30.37,10.0,North,8.1,-,N/A,,Overcast,10,2013-05-24 16:11:00
12:31 PM,44.6,33.8,66,30.37,10.0,NNE,8.1,-,N/A,,Overcast,20,2013-05-24 16:31:00
12:52 PM,46.4,35.6,66,30.37,10.0,North,4.6,-,N/A,,Mostly Cloudy,10,2013-05-24 16:52:00
1:12 PM,46.4,35.6,66,30.37,10.0,North,5.8,-,N/A,,Mostly Cloudy,10,2013-05-24 17:12:00
1:32 PM,46.4,35.6,66,30.38,10.0,NNE,8.1,-,N/A,,Scattered Clouds,30,2013-05-24 17:32:00
1:52 PM,48.2,35.6,62,30.38,10.0,WNW,6.9,-,N/A,,Mostly Cloudy,300,2013-05-24 17:52:00
2:12 PM,46.4,33.8,62,30.38,10.0,Calm,Calm,-,N/A,,Mostly Cloudy,0,2013-05-24 18:12:00
2:32 PM,50.0,35.6,58,30.37,10.0,NNW,5.8,-,N/A,,Scattered Clouds,330,2013-05-24 18:32:00
2:52 PM,50.0,35.6,58,30.36,10.0,Calm,Calm,-,N/A,,Scattered Clouds,0,2013-05-24 18:52:00
3:12 PM,51.8,35.6,54,30.36,10.0,North,3.5,-,N/A,,Scattered Clouds,350,2013-05-24 19:12:00
3:32 PM,53.6,37.4,54,30.35,10.0,WNW,4.6,-,N/A,,Scattered Clouds,300,2013-05-24 19:32:00
3:52 PM,53.6,37.4,54,30.35,10.0,North,5.8,-,N/A,,Scattered Clouds,10,2013-05-24 19:52:00
4:12 PM,53.6,41.0,62,30.35,10.0,North,3.5,-,N/A,,Scattered Clouds,10,2013-05-24 20:12:00
4:32 PM,53.6,41.0,62,30.35,10.0,NE,6.9,-,N/A,,Scattered Clouds,40,2013-05-24 20:32:00
4:52 PM,53.6,42.8,67,30.34,10.0,ENE,6.9,-,N/A,,Clear,70,2013-05-24 20:52:00
5:13 PM,53.6,41.0,62,30.34,10.0,East,4.6,-,N/A,,Clear,80,2013-05-24 21:13:00
5:33 PM,53.6,39.2,58,30.33,10.0,Calm,Calm,-,N/A,,Clear,0,2013-05-24 21:33:00
5:53 PM,53.6,41.0,62,30.33,10.0,Calm,Calm,-,N/A,,Clear,0,2013-05-24 21:53:00
6:13 PM,53.6,41.0,62,30.32,10.0,Calm,Calm,-,N/A,,Clear,0,2013-05-24 22:13:00
6:33 PM,55.4,39.2,54,30.31,10.0,Calm,Calm,-,N/A,,Clear,0,2013-05-24 22:33:00
6:53 PM,55.4,39.2,54,30.31,10.0,Calm,Calm,-,N/A,,Clear,0,2013-05-24 22:53:00
7:13 PM,55.4,39.2,54,30.30,10.0,Calm,Calm,-,N/A,,Clear,0,2013-05-24 23:13:00
7:33 PM,55.4,41.0,58,30.30,10.0,Calm,Calm,-,N/A,,Clear,0,2013-05-24 23:33:00
7:54 PM,53.6,42.8,67,30.29,10.0,NE,4.6,-,N/A,,Clear,50,2013-05-24 23:54:00
8:14 PM,53.6,42.8,67,30.30,10.0,NE,5.8,-,N/A,,Clear,50,2013-05-25 00:14:00
8:34 PM,51.8,42.8,71,30.30,10.0,NE,6.9,-,N/A,,Clear,50,2013-05-25 00:34:00
8:54 PM,50.0,42.8,76,30.30,10.0,NE,6.9,-,N/A,,Clear,50,2013-05-25 00:54:00
9:14 PM,48.2,42.8,82,30.30,10.0,ENE,8.1,-,N/A,,Clear,60,2013-05-25 01:14:00
9:34 PM,46.4,42.8,87,30.30,10.0,ENE,9.2,-,N/A,,Clear,60,2013-05-25 01:34:00
9:54 PM,46.4,41.0,81,30.31,10.0,ENE,8.1,-,N/A,,Clear,60,2013-05-25 01:54:00
10:15 PM,44.6,41.0,87,30.32,10.0,ENE,6.9,-,N/A,,Clear,60,2013-05-25 02:15:00
10:35 PM,44.6,39.2,81,30.32,10.0,East,8.1,-,N/A,,Clear,80,2013-05-25 02:35:00
10:55 PM,42.8,39.2,87,30.34,10.0,East,3.5,-,N/A,,Clear,90,2013-05-25 02:55:00
11:15 PM,42.8,37.4,81,30.34,10.0,East,3.5,-,N/A,,Clear,90,2013-05-25 03:15:00
11:35 PM,42.8,37.4,81,30.34,10.0,Calm,Calm,-,N/A,,Clear,0,2013-05-25 03:35:00
11:55 PM,42.8,37.4,81,30.35,10.0,Calm,Calm,-,N/A,,Clear,0,2013-05-25 03:55:00